Retour au catalogue

SL-8 DEB

ActifLEO
NORAD 2934·DEBRIS·🇷🇺 Russia

Lancé Mar 15, 1965 depuis Baikonur Cosmodrome

Loading…

Prochains Passages (prochaines 24 heures)

TLE

FraisSource: Space-Track

Époque: Sep 14, 2026, 02:24 UTC

1 02934U 65020EM  26257.10009742  .00000224  00000-0  16617-2 0  9997
2 02934  55.5933 282.3957 0353681  22.5879  11.1830 12.50995881713222

Suivez SL-8 DEB en temps réel avec AllMySat

Download on the App Store